#timestamp,LO_Frequency,Hit,StdDev 
1581631215.8,286047011.8,N
1581631235.6,286047010.4,N
1581631255.5,286047010.1,N
1581631275.3,286047007.7,N
1581631295.1,286047007.3,N
1581631315.9,286047002.5,N
1581631335.7,286047001.2,N
1581631355.5,286046997.7,N
1581631375.4,286046999.2,N
1581631395.2,286046998.4,N
1581631415.1,286046998.1,N
1581631416.0,286046998.1,N
1581631435.8,286047002.4,N
1581631455.6,286047002.0,N
1581631475.5,286047001.3,N
1581631495.3,286047004.5,N
1581631515.1,286047004.2,N
1581631535.9,286047004.2,N
1581631555.7,286047001.3,N
1581631575.6,286047003.1,N
1581631595.4,286047000.0,N
1581631615.2,286046996.5,N
1581631635.1,286046995.1,N
1581631636.0,286046995.1,N
1581631655.8,286046996.4,N
1581631675.6,286046994.0,N
1581631695.5,286046996.0,N
1581631715.3,286046994.2,N
1581631735.2,286046991.9,N
1581631755.9,286046991.9,N
1581631775.7,286046996.3,N
1581631795.6,286046995.5,N
1581631815.4,286046999.6,N
1581631835.3,286046996.7,N
1581631855.1,286047002.5,N
1581631856.0,286047002.5,N
1581631875.8,286047001.5,N
1581631895.7,286047000.7,N
1581631915.5,286046995.0,N
1581631935.3,286046993.5,N
1581631955.2,286046991.8,N
1581631975.0,286046994.0,N
1581631975.9,286046994.0,N
1581631995.8,286046997.1,N
1581632015.6,286046997.3,N
1581632035.4,286046999.0,N
1581632055.3,286046996.6,N
1581632075.1,286046996.1,N
1581632095.8,286046995.1,N
1581632115.7,286046999.2,N
1581632135.5,286046999.9,N
1581632155.4,286047002.3,N
1581632175.2,286047000.8,N
1581632195.0,286046996.7,N
1581632195.9,286046996.7,N
1581632215.8,286046996.2,N
1581632235.6,286046992.4,N
1581632255.5,286046993.2,N
1581632275.3,286046992.3,N
1581632295.1,286046991.1,N
1581632315.9,286046993.1,N
1581632335.7,286046992.6,N
1581632355.6,286046992.9,N
1581632375.4,286046995.1,N
1581632395.2,286047001.2,N
1581632415.1,286047000.2,N
1581632416.0,286047000.2,N
1581632435.8,286047002.2,N
1581632455.6,286047005.9,N
1581632475.5,286047002.9,N
1581632495.3,286047004.4,N
1581632515.2,286047002.1,N
1581632535.9,286047001.2,N
1581632555.7,286046995.5,N
1581632575.6,286046993.9,N
1581632595.4,286046992.1,N
1581632615.2,286046993.9,N
1581632635.1,286046993.3,N
1581632636.0,286046993.3,N
1581632655.8,286046997.2,N
1581632675.7,286046995.4,N
1581632695.5,286046997.9,N
1581632715.3,286046999.2,N
1581632735.2,286047000.8,N
1581632755.0,286047002.7,N
1581632755.9,286047002.7,N
1581632775.8,286047002.2,N
1581632795.6,286047002.0,N
1581632815.4,286047000.9,N
1581632835.3,286046997.0,N
1581632855.1,286046993.4,N
1581632875.9,286046992.3,N
1581632895.7,286046993.1,N
1581632915.5,286046992.1,N
1581632935.4,286046996.3,N
1581632955.2,286046996.7,N
1581632975.0,286046996.5,N
1581632975.9,286046996.5,N
1581632995.8,286047001.2,N
1581633015.6,286046999.2,N
1581633035.5,286046999.1,N
1581633055.3,286047005.6,N
1581633075.1,286047006.3,N
1581633095.9,286047006.2,N
1581633115.7,286047006.4,N
1581633135.6,286047005.4,N
1581633155.4,286047002.4,N
1581633175.2,286046997.0,N
1581633195.1,286046993.3,N
1581633196.0,286046993.3,N
1581633215.8,286046996.3,N
1581633235.6,286046995.5,N
1581633255.5,286046997.4,N
1581633275.3,286046999.4,N
1581633295.2,286046999.9,N
1581633315.9,286047002.2,N
1581633335.7,286047005.8,N
1581633355.6,286047007.4,N
1581633375.4,286047006.8,N
1581633395.3,286047005.7,N
1581633415.1,286047004.2,N
1581633416.0,286047004.2,N
1581633435.8,286047000.2,N
1581633455.7,286047000.1,N
1581633475.5,286047000.0,N
1581633495.3,286047000.2,N
1581633515.2,286047001.4,N
1581633535.0,286047003.1,N
1581633535.9,286047003.1,N
1581633555.8,286047005.1,N
1581633575.6,286047008.0,N
1581633595.4,286047008.2,N
1581633615.3,286047013.6,Y
1581633635.1,286047011.9,P
1581633655.9,286047013.2,N
1581633675.7,286047012.4,N
1581633695.5,286047009.2,N
1581633715.4,286047007.6,N
1581633735.2,286046999.8,N
1581633755.0,286046998.7,N
1581633756.0,286046998.7,N
1581633775.8,286046997.2,N
1581633795.6,286046998.0,N
1581633815.5,286046997.4,N
1581633835.3,286046997.4,N
1581633855.1,286046995.8,N
1581633875.9,286046998.7,N
1581633895.7,286047002.1,N
1581633915.6,286047001.4,N
1581633935.4,286047005.5,N
1581633955.2,286047001.3,N
1581633975.1,286047001.4,N
1581633976.0,286047001.4,N
1581633995.8,286047000.3,N
1581634015.6,286046998.2,N
1581634035.5,286046995.2,N
1581634055.3,286046994.3,N
1581634075.2,286046993.4,N
1581634095.9,286046995.4,N
1581634115.7,286046995.6,N
1581634135.6,286046993.6,N
1581634155.4,286046995.9,N
1581634175.2,286046990.1,N
1581634195.1,286046994.5,N
1581634196.0,286046994.5,N
1581634215.8,286046994.2,N
1581634235.7,286046995.8,N
1581634255.5,286046996.2,N
1581634275.3,286046994.6,N
1581634295.2,286046992.1,N
1581634315.0,286046990.2,N
1581634315.9,286046990.2,N
1581634335.8,286046991.3,N
1581634355.6,286046989.6,N
1581634375.4,286046989.7,N
1581634395.3,286046991.2,N
1581634415.1,286046987.4,N
1581634435.8,286046988.2,N
1581634455.7,286046987.2,N
1581634475.5,286046990.0,N
1581634495.4,286046991.5,N
1581634515.2,286046990.7,N
1581634535.0,286046991.3,N
1581634535.9,286046991.3,N
1581634555.8,286046993.1,N
1581634575.6,286046993.0,N
1581634595.5,286046993.1,N
1581634615.3,286046994.3,N
1581634635.1,286046990.3,Y
1581634655.9,286046996.5,P
1581634675.7,286046994.9,N
1581634695.5,286046995.5,N
1581634715.4,286046999.2,N
1581634735.2,286046998.0,N
1581634755.1,286046996.1,N
1581634756.0,286046996.1,N
1581634775.8,286046995.0,N
1581634795.6,286046993.4,Y
